Weather History for Zapata, TX

Change the Weather History Date:

Saturday, December 10, 2011

  Actual Average (KLRD) Record (KLRD)
Temperature  
Mean Temperature 56 °F 58 °F  
Max Temperature 62 °F 68 °F 92 °F (1939)
Min Temperature 50 °F 47 °F 20 °F (1978)
Degree Days  
Heating Degree Days 9 8  
Month to date heating degree days 75  
Since 1 July heating degree days 190  
Cooling Degree Days 0 1  
Month to date cooling degree days 14  
Year to date cooling degree days 4269  
Growing Degree Days 6 (Base 50)    
Moisture  
Dew Point 54 °F    
Average Humidity 96    
Maximum Humidity 100    
Minimum Humidity 82    
Precipitation  
Precipitation 1.35 in 0.03 in 1.89 in (2011)
Month to date precipitation 0.25  
Year to date precipitation 19.57  
Sea Level Pressure  
Sea Level Pressure 30.30 in    
Wind  
Wind Speed 8 mph (NNW)    
Max Wind Speed 13 mph    
Max Gust Speed -    
Visibility 5 miles    
Events Rain    
T = Trace of Precipitation, MM = Missing Value Source: NWS Daily Summary

Daily Weather History Graph

Daily Weather History Graph

Search for Another Location

Airport:

Trip Planner

Search our weather history database for the weather conditions in past years. The results will help you decide how hot, cold, wet, or windy it might be!

Date:

Astronomy

Dec. 10, 2011 Rise Set
Actual Time 7:15 AM CST 5:44 PM CST
Civil Twilight 6:49 AM CST 6:09 PM CST
Nautical Twilight 6:20 AM CST 6:38 PM CST
Astronomical Twilight 5:52 AM CST 7:06 PM CST
Moon 6:00 PM CST (12/10) 7:15 AM CST (12/10)
Length of Visible Light 11h 19m
Length of Day
10h 29m
Full, 100% of the Moon is Illuminated
Dec 10
Full
Dec 17
Last Quarter
Dec 24
New
Jan 1
First Quarter
Jan 9
Full

Hourly Weather History & Observations

Time (CST) Temp. Windchill Dew Point Humidity Pressure Visibility Wind Dir Wind Speed Gust Speed Precip Events Conditions
12:15 AM 62.6 °F - 57.2 °F 82% 30.24 in 3.0 mi North - - 0.09 in Rain Heavy Rain
12:35 AM 60.8 °F - 59.0 °F 94% 30.24 in 10.0 mi NW 8.1 mph - 0.09 in Rain Light Rain
12:55 AM 60.8 °F - 59.0 °F 94% 30.24 in 10.0 mi NNW 10.4 mph - 0.09 in Rain Light Rain
1:15 AM 60.8 °F - 59.0 °F 94% 30.24 in 5.0 mi NNW 9.2 mph - 0.03 in Rain Heavy Rain
1:35 AM 60.8 °F - 59.0 °F 94% 30.24 in 5.0 mi NNW 8.1 mph - 0.07 in Rain Rain
1:55 AM 60.8 °F - 59.0 °F 94% 30.23 in 7.0 mi NNW 6.9 mph - 0.08 in Rain Heavy Rain
2:15 AM 60.8 °F - 59.0 °F 94% 30.23 in 7.0 mi North 10.4 mph - 0.01 in   Drizzle
2:35 AM 59.0 °F - 59.0 °F 100% 30.23 in 7.0 mi North 5.8 mph - 0.02 in   Drizzle
2:55 AM 59.0 °F - 59.0 °F 100% 30.23 in 7.0 mi North 9.2 mph - 0.04 in Rain Rain
3:15 AM 59.0 °F - 57.2 °F 94% 30.23 in 10.0 mi North 8.1 mph - N/A   Drizzle
3:35 AM 59.0 °F - 57.2 °F 94% 30.23 in 7.0 mi North 4.6 mph - N/A   Overcast
3:55 AM 59.0 °F - 59.0 °F 100% 30.23 in 5.0 mi North 8.1 mph - 0.01 in Rain Heavy Rain
4:15 AM 59.0 °F - 57.2 °F 94% 30.23 in 5.0 mi North 6.9 mph - 0.01 in   Heavy Drizzle
4:35 AM 59.0 °F - 59.0 °F 100% 30.23 in 5.0 mi North 4.6 mph - 0.05 in Rain Heavy Rain
4:55 AM 59.0 °F - 59.0 °F 100% 30.24 in 4.0 mi SW 3.5 mph - 0.10 in Rain Heavy Rain
5:15 AM 59.0 °F - 57.2 °F 94% 30.25 in 4.0 mi WNW 5.8 mph - 0.12 in Rain Heavy Rain
5:35 AM 59.0 °F - 57.2 °F 94% 30.25 in 5.0 mi WNW 9.2 mph - 0.15 in Rain Rain
5:55 AM 59.0 °F - 55.4 °F 88% 30.26 in 7.0 mi NW 8.1 mph - 0.17 in   Heavy Drizzle
6:15 AM 57.2 °F - 55.4 °F 94% 30.26 in 5.0 mi NW 9.2 mph - 0.04 in Rain Heavy Rain
6:35 AM 57.2 °F - 55.4 °F 94% 30.27 in 7.0 mi North 4.6 mph - 0.04 in   Drizzle
6:55 AM 57.2 °F - 55.4 °F 94% 30.27 in 5.0 mi North 5.8 mph - 0.05 in   Heavy Drizzle
7:15 AM 59.0 °F - 57.2 °F 94% 30.28 in 10.0 mi NE 9.2 mph - 0.01 in Rain Light Rain
7:35 AM 59.0 °F - 57.2 °F 94% 30.28 in 10.0 mi ENE 6.9 mph - 0.01 in   Drizzle
7:55 AM 57.2 °F - 55.4 °F 94% 30.29 in 10.0 mi NE 6.9 mph - 0.01 in   Drizzle
8:15 AM 57.2 °F - 55.4 °F 94% 30.30 in 5.0 mi NE 8.1 mph - 0.02 in Rain Light Rain
8:35 AM 55.4 °F - 55.4 °F 100% 30.31 in 3.0 mi NE 5.8 mph - 0.04 in Rain Heavy Rain
8:55 AM 55.4 °F - 55.4 °F 100% 30.33 in 4.0 mi NE 4.6 mph - 0.06 in Rain Heavy Rain
9:15 AM 55.4 °F - 55.4 °F 100% 30.33 in 2.5 mi NNE 8.1 mph - 0.03 in Rain Heavy Rain
9:35 AM 55.4 °F - 53.6 °F 94% 30.34 in 2.5 mi North 6.9 mph - 0.05 in Rain Heavy Rain
9:55 AM 55.4 °F - 53.6 °F 94% 30.35 in 2.5 mi North 8.1 mph - 0.08 in Rain Rain
10:15 AM 55.4 °F - 53.6 °F 94% 30.35 in 3.0 mi North 8.1 mph - 0.02 in Rain Rain
10:35 AM 53.6 °F - 53.6 °F 100% 30.35 in 3.0 mi NNW 8.1 mph - 0.03 in   Heavy Drizzle
10:55 AM 53.6 °F - 53.6 °F 100% 30.36 in 2.0 mi NNW 9.2 mph - 0.06 in Rain Heavy Rain
11:15 AM 53.6 °F - 51.8 °F 94% 30.36 in 2.0 mi NNW 11.5 mph - 0.05 in Rain Rain
11:35 AM 51.8 °F - 51.8 °F 100% 30.36 in 2.0 mi NNW 12.7 mph - 0.08 in   Heavy Drizzle
11:55 AM 51.8 °F - 51.8 °F 100% 30.35 in 2.0 mi NNW 11.5 mph - 0.10 in Rain Rain
12:15 PM 51.8 °F - 50.0 °F 94% 30.35 in 2.5 mi NNW 10.4 mph - 0.02 in   Heavy Drizzle
12:35 PM 51.8 °F - 50.0 °F 94% 30.34 in 3.0 mi NNW 11.5 mph - 0.03 in Rain Rain
12:55 PM 51.8 °F - 50.0 °F 94% 30.34 in 3.0 mi NNW 11.5 mph - 0.05 in Rain Light Rain
1:15 PM 51.8 °F - 50.0 °F 94% 30.33 in 4.0 mi NNW 8.1 mph - 0.01 in   Drizzle
1:35 PM 51.8 °F - 50.0 °F 94% 30.33 in 2.5 mi NW 9.2 mph - 0.02 in Rain Rain
1:55 PM 51.8 °F - 50.0 °F 94% 30.32 in 2.5 mi NNW 12.7 mph - 0.06 in Rain Rain
2:15 PM 51.8 °F - 50.0 °F 94% 30.32 in 3.0 mi NNW 11.5 mph - 0.03 in Rain Rain
2:35 PM 50.0 °F - 50.0 °F 100% 30.33 in 3.0 mi NNW 9.2 mph - 0.05 in Rain Heavy Rain
2:55 PM 50.0 °F - 50.0 °F 100% 30.33 in 2.5 mi NNW 11.5 mph - 0.10 in Rain Rain
3:15 PM 51.8 °F - 50.0 °F 94% 30.33 in 5.0 mi NNW 9.2 mph - 0.01 in Rain Rain
3:35 PM 50.0 °F - 50.0 °F 100% 30.33 in 7.0 mi NNW 8.1 mph - 0.04 in Rain Rain
3:55 PM 51.8 °F - 50.0 °F 94% 30.33 in 7.0 mi NW 6.9 mph - 0.06 in Rain Rain
4:15 PM 50.0 °F - 50.0 °F 100% 30.33 in 5.0 mi North 9.2 mph - 0.05 in Rain Rain
4:35 PM 50.0 °F - 48.2 °F 94% 30.33 in 7.0 mi NNW 6.9 mph - 0.09 in Rain Light Rain
4:55 PM 50.0 °F - 50.0 °F 100% 30.34 in 10.0 mi NNW 6.9 mph - 0.10 in Rain Light Rain
5:15 PM 50.0 °F - 48.2 °F 94% 30.35 in 7.0 mi NW 6.9 mph - 0.03 in Rain Rain
5:35 PM 50.0 °F - 48.2 °F 94% 30.35 in 5.0 mi NNW 6.9 mph - 0.07 in Rain Rain
5:55 PM 50.0 °F - 48.2 °F 94% 30.33 in 5.0 mi North 5.8 mph - 0.12 in Rain Rain
6:15 PM 50.0 °F - 48.2 °F 94% 30.34 in 10.0 mi North 5.8 mph - 0.01 in Rain Light Rain
6:35 PM 50.0 °F - 48.2 °F 94% 30.34 in 10.0 mi NNE 5.8 mph - 0.01 in   Drizzle
6:55 PM 50.0 °F - 48.2 °F 94% 30.35 in 10.0 mi NNE 6.9 mph - 0.01 in   Drizzle
7:15 PM 48.2 °F - 46.4 °F 93% 30.35 in 10.0 mi NE 5.8 mph - 0.01 in   Drizzle
7:35 PM 48.2 °F - 46.4 °F 93% 30.35 in 10.0 mi NNE 6.9 mph - 0.01 in   Light Drizzle
7:55 PM 48.2 °F - 46.4 °F 93% 30.35 in 10.0 mi NE 5.8 mph - 0.01 in   Overcast
8:15 PM 48.2 °F - 46.4 °F 93% 30.36 in 10.0 mi NE 4.6 mph - N/A   Overcast
8:35 PM 50.0 °F - 46.4 °F 87% 30.37 in 10.0 mi NE 5.8 mph - N/A Rain Rain
8:55 PM 48.2 °F - 46.4 °F 93% 30.37 in 10.0 mi NNE 6.9 mph - N/A   Light Drizzle
9:15 PM 48.2 °F - 46.4 °F 93% 30.38 in 10.0 mi NE 5.8 mph - N/A   Overcast
9:35 PM 46.4 °F 43.5 °F 46.4 °F 100% 30.37 in 7.0 mi NE 5.8 mph - N/A   Overcast
9:55 PM 46.4 °F 44.3 °F 46.4 °F 100% 30.38 in 7.0 mi NNE 4.6 mph - N/A   Overcast
10:15 PM 46.4 °F 43.5 °F 46.4 °F 100% 30.39 in 5.0 mi North 5.8 mph - N/A   Overcast
10:35 PM 46.4 °F 43.5 °F 44.6 °F 93% 30.39 in 4.0 mi North 5.8 mph - 0.01 in Rain Heavy Rain
10:55 PM 46.4 °F 45.2 °F 46.4 °F 100% 30.38 in 4.0 mi North 3.5 mph - 0.04 in   Heavy Drizzle
11:15 PM 46.4 °F 44.3 °F 44.6 °F 93% 30.38 in 4.0 mi North 4.6 mph - 0.02 in   Heavy Drizzle
11:35 PM 46.4 °F 44.3 °F 44.6 °F 93% 30.38 in 4.0 mi North 4.6 mph - 0.04 in   Heavy Drizzle
11:55 PM 46.4 °F 43.5 °F 44.6 °F 93% 30.38 in 4.0 mi North 5.8 mph - 0.07 in Rain Rain